Regional Weather Roundup
Issued by NWS Upton, NY

Current Version | Previous Version | Graphics & Text | Print | Product List | Glossary Off
Versions: 1 2 3 4 5 6 7 8 9 10 11 12 13 14 15 16 17 18 19 20 21 22 23 24 25 26 27 28 29 30 31 32 33 34 35 36 37 38 39 40 41 42 43 44 45 46 47 48 49 50

000
ASUS41 KOKX 230518
RWROKX

REGIONAL WEATHER ROUNDUP
NATIONAL WEATHER SERVICE NEW YORK NY
100 AM EDT SAT MAY 23 2015

NOTE: "FAIR" INDICATES FEW OR NO CLOUDS BELOW 12,000 FEET WITH NO
SIGNIFICANT WEATHER AND/OR OBSTRUCTIONS TO VISIBILITY.

NYZ071-072-176-178-NJZ106-104-230600-
NEW YORK CITY METRO AREA


CITY           SKY/WX    TMP DP  RH WIND       PRES   REMARKS
CENTRAL PARK   CLEAR     59  32  36 NW12G23   30.20R
LAGUARDIA APRT CLEAR     59  34  39 N18       30.16R
KENNEDY INTL   CLEAR     60  30  32 NW16      30.17R
NEWARK/LIBERTY CLEAR     58  33  39 NW15G22   30.18R
BRNX BOT. GARD   N/A     55  32  41 NW13      30.20R
TETERBORO      CLEAR     57  31  37 NW13G28   30.17R
$$

NYZ177-179-078>081-230600-
LONG ISLAND NEW YORK

CITY           SKY/WX    TMP DP  RH WIND       PRES   REMARKS
FARMINGDALE    CLEAR     59  33  37 NW8G16    30.15R
ISLIP          CLEAR     56  34  43 NW10      30.13R
SHIRLEY        PTCLDY    53  35  50 N7        30.14R
WESTHAMPTON    PTCLDY    52  32  46 CALM      30.15R
MONTAUK POINT    N/A     56  37  49 NW8       30.13R
$$

NYZ052-065-067-230600-
HUDSON VALLEY

CITY           SKY/WX    TMP DP  RH WIND       PRES   REMARKS
WHITE PLAINS   CLEAR     55  30  38 NW23G33   30.15R
NEWBURGH       CLEAR     52  27  37 NW14G35   30.20R
MONTGOMERY     CLEAR     51  26  37 N8G18     30.19R
POUGHKEEPSIE   CLEAR     54  25  32 W8        30.18R
ALBANY         CLOUDY    47  27  45 NW17      30.22R
$$

NJZ001-105-106-008-010-013-015-019>022-104-230600-
NEW JERSEY

CITY           SKY/WX    TMP DP  RH WIND       PRES   REMARKS
NEWARK/LIBERTY CLEAR     58  33  39 NW15G22   30.18R
TETERBORO      CLEAR     57  31  37 NW13G28   30.17R
CALDWELL       CLEAR     55  32  41 VRB7      30.19R
MORRISTOWN     CLEAR     57  30  35 NW9G18    30.21R
SOMERVILLE     CLEAR     46  40  79 CALM      30.18R
SUSSEX         CLEAR     51  27  39 VRB6      30.23R
ANDOVER          N/A     51  30  44 N12G21    30.21R
TRENTON        CLEAR     56  35  45 W5        30.20R
MILLVILLE      CLEAR     60  36  40 NW8       30.21R
ATLANTIC CITY  CLEAR     53  40  61 N8        30.20R
WRIGHTSTOWN    CLEAR     56  37  47 N6        30.17R
TOMS RIVER     CLEAR    N/A N/A N/A NW5       30.19R
BELMAR         CLEAR     54  37  54 NW6       30.18R
$$

PAZ047>061-062-071-230600-
EASTERN PENNSYLVANIA

CITY           SKY/WX    TMP DP  RH WIND       PRES   REMARKS
PHILADELPHIA   CLEAR     62  26  25 NW8       30.21R
ALLENTOWN      CLEAR     54  34  46 N13       30.23R
SCRANTON       CLEAR     47  24  40 N10G18    30.25R
$$

CTZ002-004>006-009-010-012-RIZ004-006-007-MAZ004-011-015-230600-
SOUTHERN NEW ENGLAND
 IN CT

CITY           SKY/WX    TMP DP  RH WIND       PRES   REMARKS
BRADLEY INTL   CLEAR     53  25  33 NW13      30.13R
HARTFORD       CLEAR     55  27  34 VRB6      30.14R
DANBURY        CLEAR     52  30  43 NW8G16    30.17R
WTRBRY/OXFORD  CLEAR     48  30  49 NW7       30.16R
BRIDGEPORT     CLEAR     55  34  45 CALM      30.14R
MERIDEN        CLEAR     47  35  63 CALM      30.14R
NEW HAVEN      CLEAR     55  31  39 N10       30.14R
CHESTER        FAIR      54  30  40 NW9G16    30.14R
GROTON         CLEAR     54  28  36 NW10      30.11R
WILLIMANTIC    CLEAR     54  27  35 NW9       30.12R

 IN RI

CITY           SKY/WX    TMP DP  RH WIND       PRES   REMARKS
PROVIDENCE     CLEAR     55  25  31 NW9G20    30.10R
BLOCK ISLAND   PTCLDY    54  32  43 NW5       30.12R
WESTERLY       PTCLDY    55  29  36 VRB3      30.12R

 IN MA

CITY           SKY/WX    TMP DP  RH WIND       PRES   REMARKS
BOSTON         CLEAR     55  24  30 W9        30.07R
WORCESTER      CLEAR     50  22  33 W16       30.08S
WESTFIELD      CLEAR     52  24  33 NW9G20    30.13R
PROVINCETOWN   CLEAR     54  39  58 NW12      30.06S
NANTUCKET      CLOUDY    60  29  30 NW17G25   30.08R
$$

ANZ330-335-338-340-345-350-353-355-230600-
COASTAL MARINE OBSERVATIONS


STATION/POSITION TIME  SKY/WX   TEMP    WIND        PRES    VSBY  WAVE
                                AIR SEA DIR/SP/G                  HT/PER
                 (UTC)          (F)     (DEG/KT/KT) (MB)    (MI)  (FT/S)
NY HARB ENTRANCE 0450            60 56  330/ 14/ 16 1020.8          2/ 7
4S FIRE IS       0403               54                N/A           3/ 7
20S FIRE ISLAND  0450            59 55  350/ 12/ 12 1020.7          2/ 5
GREAT SOUTH BAY  0400            61 63  350/ 10/ 12   N/A
23SW MTP         0450            56 53  350/ 10/ 12 1019.7          2/ 4
HUDSON CANYON    NOT AVBL
KINGS POINT      0400            60 55   10/ 12/ 18 1020.2
CENTRAL LI SOUND NOT AVBL
EASTERN LI SOUND 0400            56     330/ 12/ 16   N/A
ROBBINS REEF     0400            61     330/ 11/ 15 1019.9
$$


>>>>>>>>>>>>>>>>>>>>>>>>>>>> KEY <<<<<<<<<<<<<<<<<<<<<<<<<<<
>                                                          <
>     SKY/WX - SKY CONDITION/PRESENT WEATHER               <
>     TMP    - TEMPERATURE IN FAHRENHEIT                   <
>     DP     - DEWPOINT IN FAHRENHEIT                      <
>     RH     - RELATIVE HUMIDITY IN PERCENT                <
>     WIND   - DIRECTION AND SPEED IN MPH                  <
>     PRES   - MEAN SEA LEVEL PRESSURE IN INCHES OF HG     <
>     WCI    - WIND CHILL INDEX                            <
>     VSB    - VISIBILITY IN MILES                         <
>     HX     - HEAT INDEX                                  <
>     TC     - TEMPERATURE IN CELSIUS                      <
>     VRB    - VARIABLE WIND DIRECTION                     <
>                                                          <
>>>>>>>>>>>>>>>>>>>>>>>>>>>> KEY <<<<<<<<<<<<<<<<<<<<<<<<<<<




USA.gov is the U.S. government's official web portal to all federal, state and local government web resources and services.